Voltar ao catálogo

ARIANE 44LP DEB

AtivoHEO
NORAD 48352·DEBRIS·🇫🇷 France

Lançado Jan 15, 1991 de Guiana Space Centre

Loading…

Próximas Passagens (próximas 24 horas)

TLE

AtualizadoSource: Space-Track

Época: Sep 13, 2026, 23:53 UTC

1 48352U 91003U   26256.99526057  .00000715  00000-0  14181-2 0  9999
2 48352   6.9200 137.3726 6111483 266.3380  26.5328  3.73260522156651

Acompanhe ARIANE 44LP DEB em tempo real com AllMySat

Download on the App Store